This is the latest recevied weather packets stored in our database for station/object KY4GW. If no packets are shown the sender has not sent any weather packets the latest 10 day(s).
| Time | Temp. | Humidity | Pressure | Rain* | Wind** | Luminosity | Snow |
|---|---|---|---|---|---|---|---|
| 1777814250 | 11.67° C | 57% | 1023.1 hPa | 0 mm | - | 356 W/m² | - |
| 1777813947 | 11.67° C | 57% | 1023.5 hPa | 0 mm | - | 337 W/m² | - |
| 1777813645 | 11.67° C | 55% | 1023.5 hPa | 0 mm | - | 318 W/m² | - |
| 1777813342 | 11.67° C | 56% | 1023.5 hPa | 0 mm | - | 298 W/m² | - |
| 1777813040 | 11.11° C | 59% | 1023.8 hPa | 0 mm | - | 280 W/m² | - |
| 1777812737 | 10.56° C | 62% | 1023.8 hPa | 0 mm | - | 258 W/m² | - |
| 1777812433 | 10.56° C | 66% | 1023.8 hPa | 0 mm | - | 239 W/m² | - |
| 1777812131 | 10.56° C | 64% | 1023.8 hPa | 0 mm | - | 221 W/m² | - |
| 1777811829 | 10° C | 65% | 1023.8 hPa | 0 mm | - | 202 W/m² | - |
| 1777811527 | 9.44° C | 66% | 1023.8 hPa | 0 mm | - | 184 W/m² | - |
| 1777811223 | 8.89° C | 68% | 1023.5 hPa | 0 mm | - | 164 W/m² | - |
| 1777810920 | 8.33° C | 70% | 1023.5 hPa | 0 mm | - | 147 W/m² | - |
| 1777810616 | 7.78° C | 74% | 1023.5 hPa | 0 mm | - | 133 W/m² | - |
| 1777810314 | 7.22° C | 71% | 1023.1 hPa | 0 mm | - | 123 W/m² | - |
| 1777810009 | 6.67° C | 71% | 1023.1 hPa | 0 mm | - | 110 W/m² | - |
| 1777809707 | 6.11° C | 72% | 1023.1 hPa | 0 mm | - | 97 W/m² | - |
| 1777809404 | 5.56° C | 72% | 1023.1 hPa | 0 mm | - | 87 W/m² | - |
| 1777809102 | 4.44° C | 73% | 1023.1 hPa | 0 mm | - | 78 W/m² | - |
| 1777808800 | 3.89° C | 77% | 1023.1 hPa | 0 mm | - | 69 W/m² | - |
| 1777808496 | 3.33° C | 79% | 1023.1 hPa | 0 mm | - | 60 W/m² | - |
| 1777808194 | 2.22° C | 90% | 1023.1 hPa | 0 mm | - | 52 W/m² | - |
| 1777807892 | 1.11° C | 94% | 1023.1 hPa | 0 mm | - | 43 W/m² | - |
| 1777807590 | 1.11° C | 95% | 1022.8 hPa | 0 mm | - | 35 W/m² | - |
| 1777807287 | 0.56° C | 95% | 1022.8 hPa | 0 mm | - | 30 W/m² | - |
| 1777806983 | 0.56° C | 96% | 1022.8 hPa | 0 mm | - | 30 W/m² | - |
* Rain latest hour (hover to see other rain measurements)
** Current wind speed in m/s (hover to see current wind gust speed)